Rexburg, ID

7:25 PM MST on February 18, 2018 (GMT -0700)
Rexburg-Madison County

Weather History for KRXE - February, 2013

Change the Weather History Date:

Saturday, February 9, 2013

  Actual Average Record
Temperature  
Mean Temperature 31 °F 20 °F  
Max Temperature 38 °F 30 °F 51 °F (2015)
Min Temperature 24 °F 11 °F -17 °F (2001)
Degree Days  
Heating Degree Days 34 44  
Month to date heating degree days 345 404  
Since 1 July heating degree days 4831 5181  
Cooling Degree Days 0 0  
Month to date cooling degree days 0 0  
Year to date cooling degree days 0 0  
Moisture  
Dew Point 19 °F    
Average Humidity 68    
Maximum Humidity 88    
Minimum Humidity 48    
Precipitation  
Precipitation 0.00 in 0.03 in 0.18 in (1999)
Month to date precipitation T 0.27  
Year to date precipitation 1.13 1.01  
Sea Level Pressure  
Sea Level Pressure 29.77 in    
Wind  
Wind Speed 10 mph (NNE)    
Max Wind Speed 20 mph    
Max Gust Speed 25 mph    
Visibility 10 miles    
Events      
T = Trace of Precipitation, MM = Missing Value Source: NWS Daily Summary

Daily Weather History Graph

Daily Weather History Graph

Search for Another Location

Airport or City:

Trip Planner

Search our weather history database for the weather conditions in past years. The results will help you decide how hot, cold, wet, or windy it might be!

Date:

Astronomy

Feb. 09, 2013 Rise Set
Actual Time 7:34 AM MST 5:49 PM MST
Civil Twilight 7:04 AM MST 6:19 PM MST
Nautical Twilight 6:30 AM MST 6:53 PM MST
Astronomical Twilight 5:56 AM MST 7:26 PM MST
Moon 6:47 AM MST (2/9) 5:37 PM MST (2/9)
Length of Visible Light 11h 15m
Length of Day
10h 15m
Waning Crescent, 0% of the Moon is Illuminated
Feb 9
Waning Crescent
Feb 10
New
Feb 17
First Quarter
Feb 25
Full
Mar 4
Last Quarter

Hourly Weather History & Observations

Time (MST) Temp. Windchill Dew Point Humidity Pressure Visibility Wind Dir Wind Speed Gust Speed Precip Events Conditions
12:53 AM 28.9 °F 19.8 °F 18.0 °F 64% 29.73 in 10.0 mi NNE 10.4 mph - N/A   Clear
1:53 AM 28.0 °F 18.6 °F 17.1 °F 63% 29.71 in 10.0 mi NNE 10.4 mph - N/A   Clear
2:53 AM 28.9 °F 19.8 °F 17.1 °F 61% 29.71 in 10.0 mi NE 10.4 mph - N/A   Mostly Cloudy
3:53 AM 28.0 °F 19.3 °F 17.1 °F 63% 29.72 in 10.0 mi NE 9.2 mph - N/A   Mostly Cloudy
4:53 AM 28.9 °F 21.1 °F 18.0 °F 64% 29.73 in 10.0 mi NE 8.1 mph - N/A   Overcast
5:53 AM 28.9 °F 16.9 °F 17.1 °F 61% 29.72 in 10.0 mi NNE 17.3 mph 21.9 mph N/A   Overcast
6:53 AM 28.9 °F 17.3 °F 18.0 °F 64% 29.73 in 10.0 mi NNE 16.1 mph - N/A   Overcast
7:53 AM 30.0 °F 18.7 °F 17.1 °F 59% 29.74 in 10.0 mi NNE 16.1 mph 24.2 mph N/A   Mostly Cloudy
8:53 AM 30.0 °F 19.5 °F 17.1 °F 59% 29.75 in 10.0 mi NE 13.8 mph 20.7 mph N/A   Overcast
9:53 AM 30.0 °F 22.4 °F 17.1 °F 59% 29.77 in 10.0 mi NNE 8.1 mph - N/A   Scattered Clouds
10:53 AM 33.1 °F 24.9 °F 18.0 °F 54% 29.77 in 10.0 mi NNE 10.4 mph - N/A   Overcast
11:53 AM 34.0 °F 24.6 °F 17.1 °F 50% 29.76 in 10.0 mi NNE 13.8 mph - N/A   Overcast
12:53 PM 36.0 °F 29.0 °F 19.9 °F 52% 29.73 in 10.0 mi North 9.2 mph - N/A   Scattered Clouds
1:53 PM 37.0 °F 31.0 °F 19.0 °F 48% 29.73 in 10.0 mi North 8.1 mph - N/A   Mostly Cloudy
2:53 PM 37.0 °F 28.9 °F 19.0 °F 48% 29.72 in 10.0 mi North 12.7 mph - N/A   Clear
3:53 PM 35.1 °F 27.4 °F 19.0 °F 52% 29.73 in 10.0 mi WNW 10.4 mph 19.6 mph N/A   Scattered Clouds
4:53 PM 34.0 °F 29.8 °F 19.0 °F 54% 29.74 in 10.0 mi Variable 4.6 mph - N/A   Clear
5:53 PM 28.9 °F 23.9 °F 18.0 °F 64% 29.79 in 10.0 mi WNW 4.6 mph - N/A   Partly Cloudy
6:53 PM 27.0 °F 17.3 °F 21.0 °F 78% 29.83 in 10.0 mi South 10.4 mph - N/A   Overcast
7:53 PM 25.0 °F 15.5 °F 21.9 °F 88% 29.85 in 10.0 mi South 9.2 mph - N/A   Overcast
8:53 PM 24.1 °F 16.0 °F 21.0 °F 88% 29.86 in 10.0 mi SSW 6.9 mph - N/A   Overcast
9:53 PM 24.1 °F 17.0 °F 19.9 °F 84% 29.87 in 10.0 mi South 5.8 mph - N/A   Overcast
10:53 PM 24.1 °F 17.0 °F 19.9 °F 84% 29.86 in 10.0 mi South 5.8 mph - N/A   Overcast
11:53 PM 24.1 °F 17.0 °F 19.0 °F 81% 29.88 in 10.0 mi South 5.8 mph - N/A   Overcast